Weather in Kungur

Russia / Perm Krai     57°25′43″N   56°56′39″E
temp.,
°C
wind,
m/s
gust,
m/s
humid.,
%
clouds,
%
prec.,
mm/h
press.,
hPa
HPBL,
m
21 june, mon
mon2123:00+14n394637 0.0 1021367
02:00+12nne37479 0.0 1022316
05:00+7n22644 0.0 102417
08:00+12ene22584 0.0 1024272
11:00+16s11458 0.0 1023755
14:00+19wsw124552 0.0 1022944
17:00+19sw225986 0.0 102175
20:00+19s23695 0.1 1019166
22 june, tue
tue2223:00+15ssw228881 0.2 101919
02:00+14ssw359365 0.0 101970
05:00+14sw359520 0.1 101896
08:00+19wsw468852 1.2 1018274
11:00+26nw475931 1.2 1017833
14:00+29nw6104399 0.0 10172798
17:00+29nnw69476 0.0 10161320
20:00+25n36645 0.0 1016149
23 june, wed
wed2323:00+19nne11760 0.0 101711
02:00+18nne227814 0.6 101812
05:00+15ene3389100 0.8 101850
08:00+16ese4686100 0.0 1019309
11:00+20ese4566100 0.0 1020696
14:00+15ese5788100 0.3 1021357
17:00+15se349114 2.0 1021214
20:00+18ese12780 0.0 1020448
24 june, thu
thu2423:00+14e11890 0.0 102010
02:00+13sse22915 0.0 102014
05:00+12s229232 0.0 102117
08:00+16sw237687 0.0 1020285
11:00+21sw4459100 0.0 1019772
14:00+24wsw2456100 0.0 10181230
17:00+27w355212 0.0 10161621
20:00+25sw35725 0.0 1014142
25 june, fri
fri2523:00+19sw488923 0.3 1014133
02:00+18sw3695100 1.3 1013116
05:00+18sw349644 1.3 101270
08:00+21wnw35805 0.0 1012322
11:00+25nw34699 0.1 1011806
14:00+28nw345324 0.0 10101628
17:00+26n356463 0.0 1010100
20:00+27e126927 0.0 100929